Wetterdaten: Mittwoch, 18.03.2015
Datum Zeit Temp. A. Feuchte A. Luftdruck Regen Wind Richtung Richtung Sonnenschein ET UV Solar Taupunkt Windchill Windben Empfang
18.03.2015 00:00 4,9 C 61 % 1024,2 hPa 0,0 l/m 2,2 km/h (1 Bft) O-SO 113 0 min 0,000 mm 0,0 UV-I 0 W/m -2,0 C 4,9 C 4,0 km/h (1 Bft) 0,00 %
18.03.2015 00:15 4,8 C 62 % 1024,3 hPa 0,0 l/m 1,4 km/h (1 Bft) O 93 0 min 0,000 mm 0,0 UV-I 0 W/m -1,9 C 4,8 C 4,0 km/h (1 Bft) 0,00 %
18.03.2015 00:30 4,2 C 65 % 1024,4 hPa 0,0 l/m 0,0 km/h (0 Bft) SO 127 0 min 0,000 mm 0,0 UV-I 0 W/m -1,8 C 4,2 C 0,0 km/h (0 Bft) 0,00 %
18.03.2015 00:45 3,8 C 66 % 1024,4 hPa 0,0 l/m 0,0 km/h (0 Bft) S-SO 167 0 min 0,000 mm 0,0 UV-I 0 W/m -2,0 C 3,8 C 0,0 km/h (0 Bft) 0,00 %
18.03.2015 01:00 3,5 C 67 % 1024,5 hPa 0,0 l/m 0,0 km/h (0 Bft) S 179 0 min 0,000 mm 0,0 UV-I 0 W/m -2,0 C 3,5 C 0,0 km/h (0 Bft) 0,00 %
18.03.2015 01:15 3,2 C 68 % 1024,6 hPa 0,0 l/m 0,0 km/h (0 Bft) SO 135 0 min 0,000 mm 0,0 UV-I 0 W/m -2,1 C 3,2 C 0,0 km/h (0 Bft) 0,00 %
18.03.2015 01:30 3,2 C 67 % 1024,6 hPa 0,0 l/m 0,0 km/h (0 Bft) SO 134 0 min 0,000 mm 0,0 UV-I 0 W/m -2,3 C 3,2 C 0,0 km/h (0 Bft) 0,00 %
18.03.2015 01:45 3,1 C 68 % 1024,4 hPa 0,0 l/m 0,0 km/h (0 Bft) S 177 0 min 0,000 mm 0,0 UV-I 0 W/m -2,2 C 3,1 C 0,0 km/h (0 Bft) 0,00 %
18.03.2015 02:00 2,8 C 68 % 1024,3 hPa 0,0 l/m 0,0 km/h (0 Bft) S 176 0 min 0,000 mm 0,0 UV-I 0 W/m -2,5 C 2,8 C 0,0 km/h (0 Bft) 0,00 %
18.03.2015 02:15 2,8 C 68 % 1024,1 hPa 0,0 l/m 0,0 km/h (0 Bft) O-SO 117 0 min 0,000 mm 0,0 UV-I 0 W/m -2,5 C 2,8 C 0,0 km/h (0 Bft) 0,00 %
18.03.2015 02:30 3,2 C 67 % 1023,9 hPa 0,0 l/m 0,0 km/h (0 Bft) S 177 0 min 0,000 mm 0,0 UV-I 0 W/m -2,3 C 3,2 C 0,0 km/h (0 Bft) 0,00 %
18.03.2015 02:45 2,7 C 68 % 1024,1 hPa 0,0 l/m 0,0 km/h (0 Bft) S 174 0 min 0,000 mm 0,0 UV-I 0 W/m -2,6 C 2,7 C 0,0 km/h (0 Bft) 0,00 %
18.03.2015 03:00 2,6 C 69 % 1024,2 hPa 0,0 l/m 0,0 km/h (0 Bft) SO 140 0 min 0,000 mm 0,0 UV-I 0 W/m -2,5 C 2,6 C 0,0 km/h (0 Bft) 0,00 %
18.03.2015 03:15 2,3 C 66 % 1024,1 hPa 0,0 l/m 0,0 km/h (0 Bft) S-SO 147 0 min 0,000 mm 0,0 UV-I 0 W/m -3,4 C 2,3 C 0,0 km/h (0 Bft) 0,00 %
18.03.2015 03:30 2,1 C 66 % 1024,0 hPa 0,0 l/m 0,7 km/h (0 Bft) O-SO 113 0 min 0,000 mm 0,0 UV-I 0 W/m -3,6 C 2,1 C 4,0 km/h (1 Bft) 0,00 %
18.03.2015 03:45 2,4 C 68 % 1024,1 hPa 0,0 l/m 1,4 km/h (1 Bft) SO 145 0 min 0,000 mm 0,0 UV-I 0 W/m -2,9 C 2,4 C 4,0 km/h (1 Bft) 0,00 %
18.03.2015 04:00 2,3 C 65 % 1023,9 hPa 0,0 l/m 0,0 km/h (0 Bft) S 180 0 min 0,000 mm 0,0 UV-I 0 W/m -3,6 C 2,3 C 0,0 km/h (0 Bft) 0,00 %
18.03.2015 04:15 1,6 C 67 % 1024,1 hPa 0,0 l/m 0,0 km/h (0 Bft) S 172 0 min 0,000 mm 0,0 UV-I 0 W/m -3,9 C 1,6 C 0,0 km/h (0 Bft) 0,00 %
18.03.2015 04:30 1,6 C 67 % 1024,3 hPa 0,0 l/m 2,9 km/h (1 Bft) O-SO 107 0 min 0,000 mm 0,0 UV-I 0 W/m -3,9 C 1,6 C 4,0 km/h (1 Bft) 0,00 %
18.03.2015 04:45 1,9 C 66 % 1024,2 hPa 0,0 l/m 0,0 km/h (0 Bft) SO 135 0 min 0,000 mm 0,0 UV-I 0 W/m -3,8 C 1,9 C 0,0 km/h (0 Bft) 0,00 %
18.03.2015 05:00 2,2 C 64 % 1024,2 hPa 0,0 l/m 0,0 km/h (0 Bft) S 181 0 min 0,000 mm 0,0 UV-I 0 W/m -3,9 C 2,2 C 0,0 km/h (0 Bft) 0,00 %
18.03.2015 05:15 2,2 C 64 % 1024,1 hPa 0,0 l/m 1,4 km/h (1 Bft) SO 136 0 min 0,000 mm 0,0 UV-I 0 W/m -3,9 C 2,2 C 4,0 km/h (1 Bft) 0,00 %
18.03.2015 05:30 2,1 C 64 % 1024,3 hPa 0,0 l/m 2,2 km/h (1 Bft) SO 134 0 min 0,000 mm 0,0 UV-I 0 W/m -4,0 C 2,1 C 4,0 km/h (1 Bft) 0,00 %
18.03.2015 05:45 2,1 C 64 % 1024,1 hPa 0,0 l/m 0,0 km/h (0 Bft) S 173 0 min 0,000 mm 0,0 UV-I 0 W/m -4,0 C 2,1 C 0,0 km/h (0 Bft) 0,00 %
18.03.2015 06:00 1,7 C 66 % 1024,3 hPa 0,0 l/m 0,0 km/h (0 Bft) S-SW 193 0 min 0,000 mm 0,0 UV-I 0 W/m -4,0 C 1,7 C 0,0 km/h (0 Bft) 0,00 %
18.03.2015 06:15 0,8 C 70 % 1024,7 hPa 0,0 l/m 0,0 km/h (0 Bft) S 180 0 min 0,000 mm 0,0 UV-I 1 W/m -4,0 C 0,8 C 0,0 km/h (0 Bft) 0,00 %
18.03.2015 06:30 1,3 C 68 % 1024,8 hPa 0,0 l/m 2,2 km/h (1 Bft) O 89 15 min 0,000 mm 0,0 UV-I 56 W/m -3,9 C 1,3 C 4,0 km/h (1 Bft) 0,00 %
18.03.2015 06:45 2,1 C 65 % 1024,7 hPa 0,0 l/m 0,4 km/h (0 Bft) O-SO 123 15 min 0,000 mm 0,0 UV-I 90 W/m -3,8 C 2,1 C 4,0 km/h (1 Bft) 0,00 %
18.03.2015 07:00 2,7 C 66 % 1024,8 hPa 0,0 l/m 0,0 km/h (0 Bft) S 174 15 min 0,000 mm 1,0 UV-I 134 W/m -3,0 C 2,7 C 0,0 km/h (0 Bft) 0,00 %
18.03.2015 07:15 3,5 C 63 % 1024,7 hPa 0,0 l/m 0,0 km/h (0 Bft) S 178 15 min 0,000 mm 1,0 UV-I 155 W/m -2,9 C 3,5 C 0,0 km/h (0 Bft) 0,00 %
18.03.2015 07:30 4,1 C 63 % 1024,7 hPa 0,0 l/m 0,0 km/h (0 Bft) SW 216 15 min 0,000 mm 1,0 UV-I 177 W/m -2,3 C 4,1 C 0,0 km/h (0 Bft) 0,00 %
18.03.2015 07:45 4,5 C 62 % 1024,7 hPa 0,0 l/m 4,0 km/h (1 Bft) O-SO 122 15 min 0,000 mm 1,0 UV-I 188 W/m -2,1 C 4,5 C 7,9 km/h (2 Bft) 0,00 %
18.03.2015 08:00 4,5 C 62 % 1024,6 hPa 0,0 l/m 7,2 km/h (2 Bft) O-SO 108 15 min 0,000 mm 1,0 UV-I 199 W/m -2,1 C 3,8 C 11,9 km/h (2 Bft) 0,00 %
18.03.2015 08:15 4,8 C 62 % 1024,7 hPa 0,0 l/m 10,4 km/h (2 Bft) O 90 15 min 0,000 mm 1,0 UV-I 210 W/m -1,9 C 1,6 C 11,9 km/h (2 Bft) 0,00 %
18.03.2015 08:30 4,8 C 63 % 1024,9 hPa 0,0 l/m 10,8 km/h (2 Bft) O-SO 108 15 min 0,000 mm 1,0 UV-I 211 W/m -1,6 C 1,3 C 15,8 km/h (3 Bft) 0,00 %
18.03.2015 08:45 5,3 C 62 % 1024,7 hPa 0,0 l/m 9,4 km/h (2 Bft) O-NO 74 15 min 0,000 mm 2,0 UV-I 234 W/m -1,4 C 2,8 C 11,9 km/h (2 Bft) 0,00 %
18.03.2015 09:00 5,8 C 60 % 1024,8 hPa 0,0 l/m 12,2 km/h (2 Bft) O-SO 116 0 min 0,000 mm 2,0 UV-I 222 W/m -1,4 C 1,6 C 19,8 km/h (3 Bft) 0,00 %
18.03.2015 09:15 5,9 C 60 % 1024,8 hPa 0,0 l/m 11,9 km/h (2 Bft) O 88 0 min 0,000 mm 2,0 UV-I 199 W/m -1,3 C 1,9 C 19,8 km/h (3 Bft) 0,00 %
18.03.2015 09:30 6,7 C 56 % 1024,7 hPa 0,0 l/m 6,5 km/h (2 Bft) O-SO 121 0 min 0,000 mm 2,0 UV-I 169 W/m -1,4 C 6,6 C 7,9 km/h (2 Bft) 0,00 %
18.03.2015 09:45 7,2 C 55 % 1024,5 hPa 0,0 l/m 9,7 km/h (2 Bft) O-SO 118 0 min 0,000 mm 2,0 UV-I 183 W/m -1,2 C 4,7 C 15,8 km/h (3 Bft) 0,00 %
18.03.2015 10:00 7,6 C 54 % 1024,3 hPa 0,0 l/m 0,4 km/h (0 Bft) NO 39 0 min 0,000 mm 3,0 UV-I 208 W/m -1,1 C 7,6 C 4,0 km/h (1 Bft) 0,00 %
18.03.2015 10:15 8,1 C 52 % 1024,2 hPa 0,0 l/m 1,8 km/h (1 Bft) S 171 0 min 0,000 mm 3,0 UV-I 236 W/m -1,2 C 8,1 C 4,0 km/h (1 Bft) 0,00 %
18.03.2015 10:30 8,7 C 51 % 1024,0 hPa 0,0 l/m 6,8 km/h (2 Bft) O 89 0 min 0,000 mm 3,0 UV-I 268 W/m -0,9 C 8,4 C 7,9 km/h (2 Bft) 0,00 %
18.03.2015 10:45 9,0 C 50 % 1023,8 hPa 0,0 l/m 1,8 km/h (1 Bft) O-SO 116 0 min 0,000 mm 3,0 UV-I 300 W/m -0,9 C 9,0 C 4,0 km/h (1 Bft) 0,00 %
18.03.2015 11:00 9,6 C 48 % 1023,9 hPa 0,0 l/m 3,2 km/h (1 Bft) O-SO 122 0 min 0,000 mm 3,0 UV-I 338 W/m -0,9 C 9,6 C 7,9 km/h (2 Bft) 0,00 %
18.03.2015 11:15 9,7 C 47 % 1023,6 hPa 0,0 l/m 4,7 km/h (1 Bft) O-SO 118 15 min 0,000 mm 4,0 UV-I 373 W/m -1,1 C 9,7 C 7,9 km/h (2 Bft) 0,00 %
18.03.2015 11:30 10,2 C 45 % 1023,4 hPa 0,0 l/m 0,0 km/h (0 Bft) SW 233 15 min 0,000 mm 4,0 UV-I 419 W/m -1,2 C 10,2 C 0,0 km/h (0 Bft) 0,00 %
18.03.2015 11:45 10,4 C 43 % 1023,4 hPa 0,0 l/m 2,9 km/h (1 Bft) O-SO 107 15 min 0,000 mm 4,0 UV-I 462 W/m -1,6 C 10,4 C 4,0 km/h (1 Bft) 0,00 %
18.03.2015 12:00 10,4 C 43 % 1023,1 hPa 0,0 l/m 9,4 km/h (2 Bft) O-SO 121 15 min 0,000 mm 4,0 UV-I 494 W/m -1,6 C 8,4 C 11,9 km/h (2 Bft) 0,00 %
18.03.2015 12:15 10,9 C 42 % 1023,0 hPa 0,0 l/m 0,0 km/h (0 Bft) S 180 15 min 0,000 mm 4,0 UV-I 505 W/m -1,5 C 10,9 C 0,0 km/h (0 Bft) 0,00 %
18.03.2015 12:30 10,9 C 42 % 1022,7 hPa 0,0 l/m 4,3 km/h (1 Bft) O-SO 105 15 min 0,000 mm 4,0 UV-I 510 W/m -1,5 C 10,9 C 7,9 km/h (2 Bft) 0,00 %
18.03.2015 12:45 11,1 C 43 % 1022,8 hPa 0,0 l/m 1,8 km/h (1 Bft) O 92 15 min 0,000 mm 4,0 UV-I 515 W/m -1,0 C 11,1 C 4,0 km/h (1 Bft) 0,00 %
18.03.2015 13:00 11,1 C 39 % 1022,4 hPa 0,0 l/m 9,7 km/h (2 Bft) O 89 15 min 0,000 mm 2,0 UV-I 520 W/m -2,3 C 9,0 C 11,9 km/h (2 Bft) 0,00 %
18.03.2015 13:15 11,4 C 37 % 1022,2 hPa 0,0 l/m 7,9 km/h (2 Bft) SO 138 15 min 0,000 mm 2,0 UV-I 525 W/m -2,8 C 10,4 C 11,9 km/h (2 Bft) 0,00 %
18.03.2015 13:30 11,7 C 38 % 1022,0 hPa 0,0 l/m 7,9 km/h (2 Bft) O-SO 103 15 min 0,000 mm 2,0 UV-I 530 W/m -2,1 C 10,7 C 11,9 km/h (2 Bft) 0,00 %
18.03.2015 13:45 11,8 C 38 % 1021,9 hPa 0,0 l/m 8,3 km/h (2 Bft) SO 133 15 min 0,000 mm 2,0 UV-I 525 W/m -2,0 C 10,6 C 11,9 km/h (2 Bft) 0,00 %
18.03.2015 14:00 11,9 C 37 % 1021,8 hPa 0,0 l/m 1,4 km/h (1 Bft) S 181 15 min 0,000 mm 2,0 UV-I 520 W/m -2,3 C 11,9 C 4,0 km/h (1 Bft) 0,00 %
18.03.2015 14:15 12,1 C 37 % 1021,7 hPa 0,0 l/m 5,4 km/h (1 Bft) O-NO 65 15 min 0,000 mm 2,0 UV-I 515 W/m -2,1 C 12,1 C 7,9 km/h (2 Bft) 0,00 %
18.03.2015 14:30 12,3 C 36 % 1021,4 hPa 0,0 l/m 11,9 km/h (2 Bft) O-NO 72 15 min 0,000 mm 2,0 UV-I 510 W/m -2,3 C 9,2 C 15,8 km/h (3 Bft) 0,00 %
18.03.2015 14:45 12,5 C 36 % 1021,4 hPa 0,0 l/m 1,8 km/h (1 Bft) O-NO 73 15 min 0,000 mm 2,0 UV-I 505 W/m -2,2 C 12,5 C 4,0 km/h (1 Bft) 0,00 %
18.03.2015 15:00 12,6 C 33 % 1021,3 hPa 0,0 l/m 0,0 km/h (0 Bft) S 184 15 min 0,000 mm 2,0 UV-I 500 W/m -3,2 C 12,6 C 0,0 km/h (0 Bft) 0,00 %
18.03.2015 15:15 12,7 C 33 % 1021,1 hPa 0,0 l/m 7,9 km/h (2 Bft) O-SO 102 15 min 0,000 mm 2,0 UV-I 501 W/m -3,1 C 11,7 C 11,9 km/h (2 Bft) 0,00 %
18.03.2015 15:30 12,7 C 34 % 1020,9 hPa 0,0 l/m 6,5 km/h (2 Bft) SO 138 15 min 0,000 mm 2,0 UV-I 502 W/m -2,7 C 12,7 C 7,9 km/h (2 Bft) 0,00 %
18.03.2015 15:45 12,7 C 34 % 1021,0 hPa 0,0 l/m 4,7 km/h (1 Bft) SO 128 15 min 0,000 mm 1,0 UV-I 505 W/m -2,7 C 12,7 C 7,9 km/h (2 Bft) 0,00 %
18.03.2015 16:00 12,8 C 33 % 1020,9 hPa 0,0 l/m 4,3 km/h (1 Bft) O-SO 113 15 min 0,000 mm 1,0 UV-I 484 W/m -3,1 C 12,8 C 7,9 km/h (2 Bft) 0,00 %
18.03.2015 16:15 13,0 C 35 % 1020,8 hPa 0,0 l/m 8,3 km/h (2 Bft) O-SO 107 15 min 0,000 mm 1,0 UV-I 449 W/m -2,1 C 11,8 C 11,9 km/h (2 Bft) 0,00 %
18.03.2015 16:30 12,5 C 35 % 1021,0 hPa 0,0 l/m 20,9 km/h (4 Bft) O-SO 117 15 min 0,000 mm 1,0 UV-I 426 W/m -2,5 C 6,3 C 24,1 km/h (4 Bft) 0,00 %
18.03.2015 16:45 12,3 C 34 % 1021,2 hPa 0,0 l/m 8,3 km/h (2 Bft) S-SO 166 15 min 0,000 mm 1,0 UV-I 382 W/m -3,1 C 11,1 C 11,9 km/h (2 Bft) 0,00 %
18.03.2015 17:00 12,1 C 33 % 1021,0 hPa 0,0 l/m 9,4 km/h (2 Bft) O 84 15 min 0,000 mm 1,0 UV-I 329 W/m -3,7 C 10,2 C 11,9 km/h (2 Bft) 0,00 %
18.03.2015 17:15 11,8 C 37 % 1021,1 hPa 0,0 l/m 7,2 km/h (2 Bft) O-SO 105 15 min 0,000 mm 1,0 UV-I 245 W/m -2,4 C 11,3 C 7,9 km/h (2 Bft) 0,00 %
18.03.2015 17:30 11,4 C 38 % 1021,5 hPa 0,0 l/m 7,2 km/h (2 Bft) O 96 15 min 0,000 mm 0,0 UV-I 156 W/m -2,4 C 10,9 C 11,9 km/h (2 Bft) 0,00 %
18.03.2015 17:45 10,7 C 39 % 1021,7 hPa 0,0 l/m 2,9 km/h (1 Bft) O-SO 112 15 min 0,000 mm 0,0 UV-I 71 W/m -2,7 C 10,7 C 4,0 km/h (1 Bft) 0,00 %
18.03.2015 18:00 10,3 C 38 % 1021,8 hPa 0,0 l/m 6,8 km/h (2 Bft) O-SO 116 0 min 0,000 mm 0,0 UV-I 10 W/m -3,4 C 10,0 C 11,9 km/h (2 Bft) 0,00 %
18.03.2015 18:15 9,7 C 40 % 1022,0 hPa 0,0 l/m 5,8 km/h (2 Bft) O-SO 120 0 min 0,000 mm 0,0 UV-I 0 W/m -3,2 C 9,7 C 11,9 km/h (2 Bft) 0,00 %
18.03.2015 18:30 9,1 C 42 % 1022,3 hPa 0,0 l/m 9,4 km/h (2 Bft) O-SO 112 0 min 0,000 mm 0,0 UV-I 0 W/m -3,1 C 7,0 C 11,9 km/h (2 Bft) 0,00 %
18.03.2015 18:45 8,5 C 42 % 1022,5 hPa 0,0 l/m 5,8 km/h (2 Bft) SO 133 0 min 0,000 mm 0,0 UV-I 0 W/m -3,7 C 8,5 C 11,9 km/h (2 Bft) 0,00 %
18.03.2015 19:00 8,4 C 43 % 1022,6 hPa 0,0 l/m 3,2 km/h (1 Bft) O 99 0 min 0,000 mm 0,0 UV-I 0 W/m -3,4 C 8,4 C 7,9 km/h (2 Bft) 0,00 %
18.03.2015 19:15 8,3 C 42 % 1022,8 hPa 0,0 l/m 11,5 km/h (2 Bft) S 173 0 min 0,000 mm 0,0 UV-I 0 W/m -3,8 C 4,8 C 15,8 km/h (3 Bft) 0,00 %
18.03.2015 19:30 8,4 C 40 % 1023,0 hPa 0,0 l/m 6,5 km/h (2 Bft) O 82 0 min 0,000 mm 0,0 UV-I 0 W/m -4,4 C 8,3 C 11,9 km/h (2 Bft) 0,00 %
18.03.2015 19:45 8,0 C 42 % 1023,0 hPa 0,0 l/m 0,4 km/h (0 Bft) O-SO 123 0 min 0,000 mm 0,0 UV-I 0 W/m -4,1 C 8,0 C 4,0 km/h (1 Bft) 0,00 %
18.03.2015 20:00 7,9 C 40 % 1023,1 hPa 0,0 l/m 5,8 km/h (2 Bft) O 89 0 min 0,000 mm 0,0 UV-I 0 W/m -4,8 C 7,9 C 7,9 km/h (2 Bft) 0,00 %
18.03.2015 20:15 7,5 C 41 % 1023,4 hPa 0,0 l/m 10,8 km/h (2 Bft) O-SO 111 0 min 0,000 mm 0,0 UV-I 0 W/m -4,9 C 4,3 C 15,8 km/h (3 Bft) 0,00 %
18.03.2015 20:30 7,1 C 42 % 1023,6 hPa 0,0 l/m 4,0 km/h (1 Bft) O-SO 102 0 min 0,000 mm 0,0 UV-I 0 W/m -4,9 C 7,1 C 7,9 km/h (2 Bft) 0,00 %
18.03.2015 20:45 6,5 C 47 % 1023,7 hPa 0,0 l/m 0,7 km/h (0 Bft) SO 146 0 min 0,000 mm 0,0 UV-I 0 W/m -4,0 C 6,5 C 4,0 km/h (1 Bft) 0,00 %
18.03.2015 21:00 5,9 C 49 % 1024,1 hPa 0,0 l/m 0,0 km/h (0 Bft) O-SO 111 0 min 0,000 mm 0,0 UV-I 0 W/m -4,0 C 5,9 C 0,0 km/h (0 Bft) 0,00 %
18.03.2015 21:15 5,3 C 51 % 1024,2 hPa 0,0 l/m 0,0 km/h (0 Bft) SO 133 0 min 0,000 mm 0,0 UV-I 0 W/m -4,0 C 5,3 C 0,0 km/h (0 Bft) 0,00 %
18.03.2015 21:30 5,0 C 51 % 1024,2 hPa 0,0 l/m 0,0 km/h (0 Bft) S 173 0 min 0,000 mm 0,0 UV-I 0 W/m -4,3 C 5,0 C 0,0 km/h (0 Bft) 0,00 %
18.03.2015 21:45 4,5 C 53 % 1024,1 hPa 0,0 l/m 0,0 km/h (0 Bft) S 176 0 min 0,000 mm 0,0 UV-I 0 W/m -4,2 C 4,5 C 0,0 km/h (0 Bft) 0,00 %
18.03.2015 22:00 4,3 C 53 % 1024,4 hPa 0,0 l/m 0,0 km/h (0 Bft) S 179 0 min 0,000 mm 0,0 UV-I 0 W/m -4,4 C 4,3 C 0,0 km/h (0 Bft) 0,00 %
18.03.2015 22:15 4,1 C 54 % 1024,3 hPa 0,0 l/m 0,0 km/h (0 Bft) S 175 0 min 0,000 mm 0,0 UV-I 0 W/m -4,4 C 4,1 C 0,0 km/h (0 Bft) 0,00 %
18.03.2015 22:30 3,7 C 55 % 1024,3 hPa 0,0 l/m 0,0 km/h (0 Bft) S 176 0 min 0,000 mm 0,0 UV-I 0 W/m -4,5 C 3,7 C 0,0 km/h (0 Bft) 0,00 %
18.03.2015 22:45 3,6 C 56 % 1024,4 hPa 0,0 l/m 0,0 km/h (0 Bft) S 177 0 min 0,000 mm 0,0 UV-I 0 W/m -4,3 C 3,6 C 0,0 km/h (0 Bft) 0,00 %
18.03.2015 23:00 3,2 C 58 % 1024,5 hPa 0,0 l/m 0,0 km/h (0 Bft) S 177 0 min 0,000 mm 0,0 UV-I 0 W/m -4,3 C 3,2 C 0,0 km/h (0 Bft) 0,00 %
18.03.2015 23:15 2,9 C 57 % 1024,4 hPa 0,0 l/m 0,0 km/h (0 Bft) S 173 0 min 0,000 mm 0,0 UV-I 0 W/m -4,8 C 2,9 C 0,0 km/h (0 Bft) 0,00 %
18.03.2015 23:30 2,8 C 58 % 1024,2 hPa 0,0 l/m 0,0 km/h (0 Bft) S 183 0 min 0,000 mm 0,0 UV-I 0 W/m -4,6 C 2,8 C 0,0 km/h (0 Bft) 0,00 %
18.03.2015 23:45 2,2 C 57 % 1024,4 hPa 0,0 l/m 0,0 km/h (0 Bft) S-SW 195 0 min 0,000 mm 0,0 UV-I 0 W/m -5,4 C 2,2 C 0,0 km/h (0 Bft) 0,00 %
_ Min-Zeit 06:15 15:00 16:15 - 00:30 - - - - - - 23:45 06:15 00:30 00:00
Minimum _ 0,8 C 33 % 1020,8 hPa - 0,0 km/h (0 Bft) - - - - - - -5,4 C 0,8 C 0,0 km/h (0 Bft) 0,00 %
_ Max-Zeit 16:15 06:15 08:30 00:00 16:30 - - 06:30 00:00 11:15 13:30 10:45 16:00 16:30 00:00
Maximum _ 13,0 C 70 % 1024,9 hPa 0,0 l/m 20,9 km/h
O-SO (4 Bft)
- - 15 min 0,000 mm 4,0 UV-I 530 W/m -0,9 C 12,8 C 24,1 km/h
O-SO (4 Bft)
0,00 %
Durchschnitt _ 6,7 C 52 % 1023,5 hPa #0,0 l/m 3,6 km/h (1 Bft) O-SO - #9:15 h #0,000 mm 2,1 UV-I 328 W/m -2,9 C 6,1 C 5,7 km/h (1 Bft) 0,00 %